• In Portugal
  • List of Countries
  • For 7 days
  • Water Temperature
  • Satellite Maps
  • Weather Map
  • Weather Widgets
  • user-avatar
    Login

    Hourly Weather Pokomsze

    Today, 17 October, Wednesday

    Time Temperature Precipitation Wind Pressure Humidity
    00:00 +10°C° 0 mm 2 mps 751 mmHg 73%
    01:00 +9°C° 0 mm 2 mps 751 mmHg 74%
    02:00 +9°C° 0 mm 2 mps 751 mmHg 75%
    03:00 +8°C° 0 mm 2 mps 751 mmHg 75%
    04:00 +8°C° 0 mm 2 mps 751 mmHg 76%
    05:00 +8°C° 0 mm 2 mps 751 mmHg 77%
    06:00 +8°C° 0 mm 2 mps 751 mmHg 76%
    07:00 +8°C° 0 mm 2 mps 751 mmHg 75%
    08:00 +8°C° 0 mm 2 mps 751 mmHg 71%
    09:00 +12°C° 0 mm 2 mps 751 mmHg 65%
    10:00 +14°C° 0 mm 2 mps 751 mmHg 58%
    11:00 +16°C° 0 mm 2 mps 752 mmHg 51%
    12:00 +17°C° 0 mm 2 mps 751 mmHg 48%
    13:00 +18°C° 0 mm 2 mps 751 mmHg 45%
    14:00 +20°C° 0 mm 2 mps 752 mmHg 42%
    15:00 +19°C° 0 mm 2 mps 751 mmHg 46%
    16:00 +18°C° 0 mm 1 mps 751 mmHg 50%
    17:00 +16°C° 0 mm 1 mps 751 mmHg 55%
    18:00 +15°C° 0 mm 1 mps 751 mmHg 57%
    19:00 +14°C° 0 mm 2 mps 751 mmHg 59%
    20:00 +13°C° 0 mm 2 mps 751 mmHg 61%
    21:00 +13°C° 0 mm 2 mps 751 mmHg 63%
    22:00 +12°C° 0 mm 2 mps 751 mmHg 64%
    23:00 +12°C° 0 mm 2 mps 751 mmHg 66%

    Tomorrow, 18 October, Thursday

    Time Temperature Precipitation Wind Pressure Humidity
    00:00 +10°C° 0 mm 2 mps 751 mmHg 69%
    01:00 +10°C° 0 mm 2 mps 751 mmHg 71%
    02:00 +10°C° 0 mm 2 mps 751 mmHg 73%
    03:00 +9°C° 0 mm 2 mps 750 mmHg 76%
    04:00 +9°C° 0 mm 2 mps 750 mmHg 79%
    05:00 +9°C° 0 mm 2 mps 750 mmHg 82%
    06:00 +9°C° 0 mm 2 mps 750 mmHg 83%
    07:00 +9°C° 0 mm 2 mps 749 mmHg 84%
    08:00 +9°C° 0 mm 2 mps 749 mmHg 85%
    09:00 +12°C° 0 mm 2 mps 749 mmHg 77%
    10:00 +14°C° 0 mm 2 mps 749 mmHg 70%
    11:00 +16°C° 0 mm 2 mps 749 mmHg 62%
    12:00 +17°C° 0 mm 2 mps 749 mmHg 58%
    13:00 +18°C° 0 mm 2 mps 749 mmHg 54%
    14:00 +19°C° 0 mm 2 mps 748 mmHg 50%
    15:00 +18°C° 0 mm 2 mps 748 mmHg 55%
    16:00 +18°C° 0 mm 1 mps 748 mmHg 59%
    17:00 +16°C° 0 mm 1 mps 748 mmHg 63%
    18:00 +15°C° 0 mm 1 mps 748 mmHg 67%
    19:00 +14°C° 0 mm 1 mps 748 mmHg 70%
    20:00 +13°C° 0 mm 1 mps 748 mmHg 73%
    21:00 +12°C° 0 mm 1 mps 748 mmHg 74%
    22:00 +12°C° 0 mm 1 mps 748 mmHg 76%
    23:00 +12°C° 0 mm 1 mps 748 mmHg 77%

    Day after tomorrow, 19 October, Friday

    Time Temperature Precipitation Wind Pressure Humidity
    00:00 +11°C° 0 mm 1 mps 748 mmHg 79%
    01:00 +11°C° 0 mm 1 mps 748 mmHg 81%
    02:00 +10°C° 0 mm 2 mps 748 mmHg 83%
    03:00 +9°C° 0 mm 2 mps 748 mmHg 85%
    04:00 +9°C° 0 mm 2 mps 748 mmHg 87%
    05:00 +9°C° 0 mm 2 mps 748 mmHg 88%
    06:00 +9°C° 0 mm 2 mps 749 mmHg 90%
    07:00 +9°C° 0 mm 2 mps 749 mmHg 92%
    08:00 +8°C° 0 mm 2 mps 749 mmHg 94%
    09:00 +9°C° 0 mm 2 mps 750 mmHg 89%
    10:00 +11°C° 0 mm 3 mps 750 mmHg 85%
    11:00 +12°C° 0 mm 3 mps 750 mmHg 80%
    12:00 +12°C° 0 mm 3 mps 750 mmHg 78%
    13:00 +12°C° 0 mm 3 mps 750 mmHg 76%
    14:00 +12°C° 0 mm 3 mps 750 mmHg 74%
    15:00 +11°C° 0 mm 3 mps 751 mmHg 75%
    16:00 +10°C° 0 mm 2 mps 751 mmHg 76%
    17:00 +10°C° 0 mm 2 mps 751 mmHg 76%
    18:00 +9°C° 0 mm 2 mps 751 mmHg 80%
    19:00 +8°C° 0 mm 2 mps 751 mmHg 83%
    20:00 +8°C° 0 mm 1 mps 752 mmHg 87%
    21:00 +7°C° 0 mm 1 mps 752 mmHg 88%
    22:00 +7°C° 0 mm 1 mps 752 mmHg 90%
    23:00 +6°C° 0 mm 1 mps 752 mmHg 91%

    20 October, Saturday

    Time Temperature Precipitation Wind Pressure Humidity
    00:00 +6°C° 0 mm 1 mps 753 mmHg 91%
    01:00 +6°C° 0 mm 1 mps 753 mmHg 91%
    02:00 +5°C° 0 mm 1 mps 753 mmHg 91%
    03:00 +5°C° 0 mm 1 mps 753 mmHg 91%
    04:00 +4°C° 0 mm 0 mps 753 mmHg 91%
    05:00 +4°C° 0 mm 0 mps 753 mmHg 91%
    06:00 +4°C° 0 mm 0 mps 753 mmHg 91%
    07:00 +5°C° 0 mm 1 mps 753 mmHg 90%
    08:00 +5°C° 0 mm 1 mps 753 mmHg 89%
    09:00 +7°C° 0 mm 1 mps 753 mmHg 82%
    10:00 +9°C° 0 mm 1 mps 753 mmHg 74%
    11:00 +9°C° 0 mm 2 mps 753 mmHg 66%
    12:00 +10°C° 0 mm 2 mps 753 mmHg 63%
    13:00 +11°C° 0 mm 3 mps 753 mmHg 61%
    14:00 +11°C° 0 mm 3 mps 753 mmHg 58%
    15:00 +11°C° 0 mm 3 mps 753 mmHg 64%
    16:00 +10°C° 0 mm 3 mps 752 mmHg 70%
    17:00 +9°C° 0 mm 2 mps 752 mmHg 75%
    18:00 +9°C° 0 mm 3 mps 752 mmHg 78%
    19:00 +9°C° 0 mm 3 mps 752 mmHg 80%
    20:00 +8°C° 0 mm 3 mps 752 mmHg 82%
    21:00 +8°C° 0.2 mm 3 mps 752 mmHg 84%
    22:00 +8°C° 0.2 mm 3 mps 752 mmHg 85%
    23:00 +8°C° 0.2 mm 3 mps 752 mmHg 86%

    21 October, Sunday

    Time Temperature Precipitation Wind Pressure Humidity
    00:00 +7°C° 0.3 mm 4 mps 752 mmHg 88%
    01:00 +6°C° 0.3 mm 4 mps 752 mmHg 89%
    02:00 +6°C° 0.3 mm 4 mps 752 mmHg 90%
    03:00 +6°C° 0 mm 4 mps 752 mmHg 91%
    04:00 +5°C° 0 mm 4 mps 752 mmHg 93%
    05:00 +5°C° 0 mm 4 mps 752 mmHg 95%
    06:00 +5°C° 0 mm 3 mps 752 mmHg 93%
    07:00 +5°C° 0 mm 3 mps 753 mmHg 91%
    08:00 +5°C° 0 mm 3 mps 753 mmHg 90%
    09:00 +7°C° 0 mm 3 mps 753 mmHg 85%
    10:00 +7°C° 0 mm 3 mps 754 mmHg 80%
    11:00 +8°C° 0 mm 3 mps 754 mmHg 76%
    12:00 +9°C° 0 mm 3 mps 754 mmHg 73%
    13:00 +9°C° 0 mm 3 mps 754 mmHg 70%
    14:00 +10°C° 0 mm 3 mps 754 mmHg 67%
    15:00 +9°C° 0 mm 2 mps 754 mmHg 70%
    16:00 +9°C° 0 mm 2 mps 754 mmHg 73%
    17:00 +9°C° 0 mm 1 mps 754 mmHg 76%
    18:00 +8°C° 0 mm 1 mps 754 mmHg 80%
    19:00 +7°C° 0 mm 1 mps 754 mmHg 83%
    20:00 +6°C° 0 mm 1 mps 754 mmHg 87%
    21:00 +6°C° 0 mm 1 mps 754 mmHg 88%
    22:00 +5°C° 0 mm 2 mps 754 mmHg 89%
    23:00 +5°C° 0 mm 2 mps 754 mmHg 90%

    22 October, Monday

    Time Temperature Precipitation Wind Pressure Humidity
    00:00 +4°C° 0 mm 2 mps 754 mmHg 90%
    01:00 +4°C° 0 mm 2 mps 753 mmHg 91%
    02:00 +3°C° 0 mm 3 mps 753 mmHg 91%
    03:00 +3°C° 0 mm 3 mps 753 mmHg 90%
    04:00 +3°C° 0 mm 3 mps 752 mmHg 89%
    05:00 +4°C° 0 mm 4 mps 752 mmHg 87%
    06:00 +4°C° 0 mm 4 mps 752 mmHg 85%
    07:00 +5°C° 0 mm 4 mps 752 mmHg 83%
    08:00 +5°C° 0 mm 4 mps 751 mmHg 81%
    09:00 +6°C° 0.1 mm 5 mps 751 mmHg 80%
    10:00 +6°C° 0.1 mm 5 mps 751 mmHg 79%
    11:00 +7°C° 0.1 mm 5 mps 750 mmHg 78%
    12:00 +7°C° 0.3 mm 5 mps 750 mmHg 80%
    13:00 +7°C° 0.3 mm 5 mps 750 mmHg 82%
    14:00 +8°C° 0.3 mm 5 mps 750 mmHg 84%
    15:00 +8°C° 0.7 mm 5 mps 749 mmHg 86%
    16:00 +8°C° 0.7 mm 5 mps 749 mmHg 88%
    17:00 +7°C° 0.7 mm 4 mps 749 mmHg 91%
    18:00 +7°C° 0.3 mm 4 mps 749 mmHg 90%
    19:00 +7°C° 0.3 mm 4 mps 749 mmHg 89%
    20:00 +6°C° 0.3 mm 4 mps 749 mmHg 89%
    21:00 +7°C° 0 mm 3 mps 749 mmHg 89%
    22:00 +5°C° 0 mm 3 mps 749 mmHg 89%
    23:00 +5°C° 0 mm 3 mps 749 mmHg 89%
    Show more